Reid Restricted Landing Area

Jump to: basic info | weather | runways | comments

Related pages: nearby airports | nearby navaids | notams | map

Basic information (top)

Codes: 6IL6
Location: lon 42.118401, lat -88.407898, elev 920 ft / 280 m msl
Status: small_airport

Weather (top)

Current conditions for Dupage Airport 15nm (27km) SSE (rec'd 2014/08/27 07:52Z):

KDPA 270752Z 01006KT 10SM FEW032 20/18 A3012 RMK AO2 SLP194 T02000178

Airport forecast for Dupage Airport 15nm (27km) SSE (rec'd 2014/08/27 06:27Z):

TAF KDPA 270525Z 2706/2806 01005KT P6SM SCT030 BKN100 
     FM271500 04008KT P6SM BKN080 
     FM271900 06010KT P6SM BKN080 
     FM280100 05006KT P6SM SCT080

Runways (top)

E/W: 3,000 x 105 ft (914 x 32 m) — grass — not lighted

N/S: 2,100 x 105 ft (640 x 32 m) — grass — not lighted

Latest comments (top)

No comments yet for Reid Restricted Landing Area

More... (top)

See also NOTAMs and nearby airports and navaids, or visit the Reid Restricted Landing Area page at the main OurAirports website..